Starlink 32175

operational
NORAD ID: 60339 Int'l Des: 2024-136 Owner: SPXS Country: US Constellation: starlink
LEOCIRCULAR

About Starlink 32175

Description loading...

Live Position

Loading 3D Globe...

Upcoming Passes

Altitude History

Altitude vs Time

uPlot chart will show altitude changes over time

Two-Line Element Set

1 60339U 24136L 25353.67591531 .00000674 00000-0 34883-4 0 9999
2 60339 53.1615 87.3555 0001216 84.9568 275.1572 15.30187421 77417
Epoch: Dec 19, 2025 • Age: 19 hours

Current Status

Altitude 478.3 km
Velocity 7.63 km/s
Sub-Earth Point 40.56°N, 135.03°W
Launch Date Aug 2, 2024
Age 1.3 years
Type internet

Technical Details

Classification Payload
Mass 730.00 kg
Dry Mass 700.00 kg
Total Mass 730.00 kg
Length 0.30 m
Diameter 4.10 m
Span 29.00 m
Shape Box + pan
Manufacturer SPXS
Bus Type Starlink V2M
Phase Status In Orbit
Owner/State SPXS/US

Large Constellations

Loading constellations...